Location: Asheville, NC
(35.6000°N, 82.5500°W)
Time: 14:14:06
(UTC-04:00)

AO-7 - Pass Details

Date: 03 January 2018
Orbit: 1440 x 1458 km, 101.7° (Epoch: 18 July)

Event Time Altitude Azimuth Distance (km) Brightness Sun altitude
Rises 04:24:45 0° 14° (NNE) 4,569 ? -38.9°
Reaches altitude 10° 04:27:32 10° 14° (NNE) 3,588 ? -38.3°
Enters shadow 04:32:24 40° 8° (N) 2,026 ? -37.4°
